BEL7VN EBBR-LOWW

Flight info

Callsign BEL7VN
Flight time 1h 31m
Altitude 35000
Route SOPOK Y863 ROPUV L607 EMGOD DCT BOMBI DCT BARSU DCT EKSOS DCT LULAR DCT RUDAP DCT BUDEX BUDEX2W
Aircraft A320/M-SDE3FGHIRWY/LB1

Departure

Time 2026-05-04 16:30
Airport Brussels Airport (EBBR)

Arrival

Time 2026-05-04 18:02
Airport Vienna International Airport (LOWW)
Time Latitude Longitude Altitude Speed Heading
2026-05-04 15:48 50.90372 4.48485 121 ft 0 kts 155°
2026-05-04 16:19 50.90401 4.48463 118 ft 4 kts 144°
2026-05-04 16:19 50.90414 4.48431 117 ft 0 kts 65°
2026-05-04 16:25 50.90418 4.48439 121 ft 4 kts 56°
2026-05-04 16:26 50.90586 4.48868 118 ft 18 kts 65°
2026-05-04 16:26 50.90758 4.49466 120 ft 22 kts 65°
2026-05-04 16:27 50.90902 4.49775 121 ft 15 kts 17°
2026-05-04 16:28 50.91130 4.49917 116 ft 9 kts 311°
2026-05-04 16:28 50.91111 4.49789 117 ft 0 kts 245°
2026-05-04 16:29 50.90281 4.46886 283 ft 166 kts 247°
2026-05-04 16:30 50.88538 4.42314 2543 ft 169 kts 202°
2026-05-04 16:31 50.86323 4.43226 3604 ft 191 kts 134°
2026-05-04 16:31 50.83275 4.48846 4645 ft 259 kts 132°
2026-05-04 16:32 50.80015 4.54891 6826 ft 277 kts 132°
2026-05-04 16:33 50.77468 4.59567 8603 ft 284 kts 133°
2026-05-04 16:33 50.74393 4.65157 10346 ft 304 kts 133°
2026-05-04 16:34 50.71917 4.69608 10952 ft 336 kts 133°
2026-05-04 16:34 50.70381 4.72443 11656 ft 343 kts 128°
2026-05-04 16:35 50.67594 4.83093 14154 ft 360 kts 109°
2026-05-04 16:35 50.65344 4.94573 16172 ft 371 kts 109°
2026-05-04 16:36 50.64575 4.98470 16827 ft 374 kts 110°
2026-05-04 16:36 50.62910 5.06306 18125 ft 378 kts 120°
2026-05-04 16:37 50.59771 5.12902 19261 ft 379 kts 133°
2026-05-04 16:37 50.58078 5.16107 19847 ft 382 kts 134°
2026-05-04 16:37 50.54643 5.22570 21043 ft 388 kts 134°
2026-05-04 16:38 50.51156 5.29121 22209 ft 394 kts 134°
2026-05-04 16:39 50.45820 5.39133 23789 ft 403 kts 135°
2026-05-04 16:39 50.42208 5.45904 24695 ft 407 kts 135°
2026-05-04 16:40 50.38577 5.52677 25549 ft 410 kts 135°
2026-05-04 16:40 50.34889 5.59554 26386 ft 414 kts 135°
2026-05-04 16:41 50.31162 5.66475 27184 ft 418 kts 136°
2026-05-04 16:41 50.25787 5.77350 28317 ft 432 kts 123°
2026-05-04 16:42 50.22982 5.91075 29335 ft 449 kts 110°
2026-05-04 16:43 50.21378 6.00550 29969 ft 453 kts 110°
2026-05-04 16:43 50.19744 6.10091 30484 ft 457 kts 110°
2026-05-04 16:43 50.18947 6.14902 30724 ft 461 kts 107°
2026-05-04 16:44 50.19221 6.35337 31762 ft 477 kts 89°
2026-05-04 16:45 50.19866 6.45613 32446 ft 474 kts 89°
2026-05-04 16:46 50.20789 6.60950 33448 ft 472 kts 89°
2026-05-04 16:46 50.21389 6.71123 34098 ft 470 kts 89°
2026-05-04 16:47 50.21984 6.81288 34631 ft 470 kts 89°
2026-05-04 16:47 50.21878 6.91388 34980 ft 464 kts 99°
2026-05-04 16:48 50.20815 7.11439 35000 ft 465 kts 99°
2026-05-04 16:49 50.19713 7.31545 34997 ft 465 kts 99°
2026-05-04 16:50 50.18050 7.51476 34991 ft 462 kts 103°
2026-05-04 16:51 50.16611 7.66359 34990 ft 463 kts 103°
2026-05-04 16:52 50.14802 7.86249 34984 ft 463 kts 102°
2026-05-04 16:53 50.13417 8.01130 34975 ft 463 kts 102°
2026-05-04 16:54 50.11508 8.20965 34975 ft 463 kts 102°
2026-05-04 16:55 50.08614 8.50704 34971 ft 463 kts 102°
2026-05-04 16:56 50.06140 8.75386 34980 ft 462 kts 103°
2026-05-04 16:57 50.04759 8.90258 34981 ft 464 kts 100°
2026-05-04 16:58 50.03300 9.10204 34990 ft 464 kts 100°
2026-05-04 17:00 50.00833 9.40049 34985 ft 464 kts 100°
2026-05-04 17:01 49.98736 9.64924 34973 ft 465 kts 100°
2026-05-04 17:02 49.97024 9.84840 34964 ft 465 kts 100°
2026-05-04 17:03 49.95702 9.99751 34959 ft 465 kts 100°
2026-05-04 17:03 49.94374 10.14672 34951 ft 465 kts 100°
2026-05-04 17:04 49.92574 10.34540 34956 ft 465 kts 101°
2026-05-04 17:05 49.90839 10.44107 34957 ft 460 kts 115°
2026-05-04 17:05 49.88511 10.53083 34956 ft 460 kts 115°
2026-05-04 17:06 49.84950 10.66857 34961 ft 460 kts 114°
2026-05-04 17:07 49.81748 10.79157 34961 ft 460 kts 115°
2026-05-04 17:07 49.78934 10.89883 34961 ft 460 kts 115°
2026-05-04 17:08 49.75321 11.03578 34957 ft 460 kts 115°
2026-05-04 17:09 49.72900 11.12735 34956 ft 460 kts 115°
2026-05-04 17:09 49.70471 11.21858 34955 ft 459 kts 115°
2026-05-04 17:10 49.64445 11.44718 34954 ft 460 kts 111°
2026-05-04 17:11 49.62479 11.54133 34979 ft 461 kts 109°
2026-05-04 17:12 49.59711 11.68349 34996 ft 461 kts 109°
2026-05-04 17:13 49.54756 11.91782 35000 ft 461 kts 110°
2026-05-04 17:14 49.50766 12.10548 34985 ft 462 kts 110°
2026-05-04 17:15 49.47749 12.24621 34965 ft 462 kts 110°
2026-05-04 17:16 49.43703 12.43379 34953 ft 462 kts 110°
2026-05-04 17:17 49.39962 12.60520 34946 ft 462 kts 110°
2026-05-04 17:18 49.35818 12.79246 34949 ft 463 kts 111°
2026-05-04 17:19 49.31270 12.97733 34946 ft 463 kts 112°
2026-05-04 17:20 49.26687 13.16199 34947 ft 464 kts 112°
2026-05-04 17:20 49.23262 13.29978 34952 ft 463 kts 112°
2026-05-04 17:21 49.17930 13.47899 34949 ft 462 kts 120°
2026-05-04 17:22 49.14980 13.56627 34949 ft 462 kts 119°
2026-05-04 17:23 49.09226 13.74197 34950 ft 462 kts 118°
2026-05-04 17:24 49.04947 13.87361 34788 ft 460 kts 118°
2026-05-04 17:24 49.00665 14.00414 34053 ft 459 kts 119°
2026-05-04 17:25 48.99228 14.04760 33794 ft 459 kts 119°
2026-05-04 17:25 48.96353 14.13433 33239 ft 459 kts 119°
2026-05-04 17:26 48.93490 14.22070 32699 ft 456 kts 119°
2026-05-04 17:26 48.89214 14.34906 31897 ft 450 kts 119°
2026-05-04 17:27 48.86451 14.43282 30856 ft 442 kts 113°
2026-05-04 17:27 48.84468 14.51824 30645 ft 415 kts 110°
2026-05-04 17:28 48.82530 14.60091 29600 ft 416 kts 111°
2026-05-04 17:29 48.79642 14.72382 27973 ft 409 kts 110°
2026-05-04 17:29 48.76743 14.84735 26278 ft 415 kts 111°
2026-05-04 17:30 48.73841 14.97000 24685 ft 409 kts 111°
2026-05-04 17:31 48.71937 15.05076 23655 ft 405 kts 111°
2026-05-04 17:31 48.69089 15.17046 21903 ft 401 kts 111°
2026-05-04 17:32 48.67194 15.24948 20768 ft 398 kts 111°
2026-05-04 17:33 48.64374 15.36679 19150 ft 393 kts 111°
2026-05-04 17:33 48.63441 15.40558 18621 ft 391 kts 111°
2026-05-04 17:34 48.60658 15.52073 16924 ft 386 kts 111°
2026-05-04 17:34 48.59735 15.55873 16355 ft 384 kts 111°
2026-05-04 17:35 48.56986 15.67155 14706 ft 378 kts 112°
2026-05-04 17:35 48.55170 15.74561 13648 ft 374 kts 112°
2026-05-04 17:35 48.54278 15.78195 13073 ft 371 kts 112°
2026-05-04 17:36 48.53386 15.81834 12536 ft 368 kts 112°
2026-05-04 17:36 48.52507 15.85413 12098 ft 361 kts 112°
2026-05-04 17:36 48.51640 15.88935 11670 ft 355 kts 112°
2026-05-04 17:36 48.50786 15.92394 11251 ft 349 kts 112°
2026-05-04 17:37 48.49944 15.95800 10866 ft 343 kts 112°
2026-05-04 17:37 48.49115 15.99144 10501 ft 337 kts 112°
2026-05-04 17:37 48.48299 16.02425 10139 ft 332 kts 112°
2026-05-04 17:37 48.47494 16.05663 9781 ft 327 kts 112°
2026-05-04 17:38 48.46698 16.08862 9392 ft 323 kts 112°
2026-05-04 17:38 48.45924 16.11970 9007 ft 310 kts 112°
2026-05-04 17:38 48.45186 16.14945 8630 ft 300 kts 112°
2026-05-04 17:38 48.44459 16.17870 8245 ft 297 kts 112°
2026-05-04 17:39 48.43020 16.23629 7506 ft 291 kts 112°
2026-05-04 17:39 48.42309 16.26465 7137 ft 288 kts 112°
2026-05-04 17:39 48.41600 16.29279 6786 ft 286 kts 113°
2026-05-04 17:40 48.40899 16.32068 6410 ft 283 kts 113°
2026-05-04 17:40 48.40206 16.34817 6045 ft 279 kts 114°
2026-05-04 17:40 48.39518 16.37533 5675 ft 276 kts 114°
2026-05-04 17:40 48.38839 16.40215 5306 ft 273 kts 114°
2026-05-04 17:41 48.38170 16.42869 5026 ft 267 kts 115°
2026-05-04 17:41 48.37331 16.45225 4998 ft 246 kts 131°
2026-05-04 17:41 48.36176 16.46953 5002 ft 224 kts 147°
2026-05-04 17:41 48.34869 16.48043 4996 ft 206 kts 162°
2026-05-04 17:42 48.33552 16.48646 4891 ft 195 kts 167°
2026-05-04 17:42 48.32255 16.49198 4641 ft 187 kts 167°
2026-05-04 17:42 48.31043 16.49714 4403 ft 180 kts 167°
2026-05-04 17:42 48.29867 16.50216 4174 ft 172 kts 167°
2026-05-04 17:43 48.28767 16.50685 3948 ft 155 kts 167°
2026-05-04 17:43 48.27784 16.51105 3780 ft 138 kts 167°
2026-05-04 17:43 48.26883 16.51488 3593 ft 133 kts 167°
2026-05-04 17:43 48.26003 16.51862 3424 ft 131 kts 167°
2026-05-04 17:44 48.25129 16.52233 3251 ft 130 kts 167°
2026-05-04 17:44 48.24259 16.52603 3089 ft 130 kts 167°
2026-05-04 17:44 48.23390 16.52973 2912 ft 129 kts 167°
2026-05-04 17:44 48.22524 16.53341 2746 ft 129 kts 167°
2026-05-04 17:45 48.21952 16.53584 2632 ft 129 kts 167°
2026-05-04 17:45 48.20799 16.54074 2410 ft 129 kts 167°
2026-05-04 17:45 48.19942 16.54438 2240 ft 128 kts 167°
2026-05-04 17:45 48.19083 16.54803 2071 ft 128 kts 167°
2026-05-04 17:46 48.18228 16.55166 1905 ft 128 kts 167°
2026-05-04 17:46 48.17375 16.55527 1734 ft 127 kts 166°
2026-05-04 17:46 48.16520 16.55890 1595 ft 128 kts 166°
2026-05-04 17:46 48.15668 16.56247 1436 ft 128 kts 164°
2026-05-04 17:47 48.14811 16.56614 1249 ft 130 kts 162°
2026-05-04 17:47 48.13947 16.56984 1049 ft 129 kts 163°
2026-05-04 17:47 48.13084 16.57350 854 ft 128 kts 164°
2026-05-04 17:47 48.12231 16.57709 714 ft 128 kts 161°
2026-05-04 17:48 48.11213 16.58154 999 ft 173 kts 163°
2026-05-04 17:48 48.09994 16.58671 1532 ft 190 kts 165°
2026-05-04 17:48 48.08693 16.59221 2148 ft 196 kts 166°
2026-05-04 17:48 48.07353 16.59795 2905 ft 203 kts 166°
2026-05-04 17:49 48.05987 16.60378 3828 ft 202 kts 167°
2026-05-04 17:49 48.04630 16.60970 4641 ft 207 kts 167°
2026-05-04 17:49 48.03242 16.61600 4906 ft 209 kts 167°
2026-05-04 17:49 48.01944 16.62588 4986 ft 216 kts 140°
2026-05-04 17:50 48.01185 16.64549 5006 ft 227 kts 106°
2026-05-04 17:50 48.01275 16.66924 5008 ft 237 kts 72°
2026-05-04 17:50 48.02227 16.68935 5007 ft 243 kts 38°
2026-05-04 17:50 48.03667 16.70248 5006 ft 242 kts 27°
2026-05-04 17:51 48.05256 16.71001 5001 ft 240 kts 359°
2026-05-04 17:51 48.06920 16.70771 5015 ft 241 kts 347°
2026-05-04 17:51 48.08559 16.70310 4997 ft 238 kts 346°
2026-05-04 17:51 48.10184 16.69825 5003 ft 239 kts 346°
2026-05-04 17:52 48.11822 16.69332 4844 ft 243 kts 346°
2026-05-04 17:52 48.13476 16.68834 4529 ft 241 kts 346°
2026-05-04 17:52 48.15122 16.68330 4201 ft 241 kts 346°
2026-05-04 17:52 48.16762 16.67817 3877 ft 241 kts 346°
2026-05-04 17:53 48.18401 16.67293 3553 ft 240 kts 346°
2026-05-04 17:53 48.20033 16.66755 3239 ft 240 kts 346°
2026-05-04 17:53 48.21660 16.66205 3025 ft 237 kts 346°
2026-05-04 17:53 48.23253 16.65665 3010 ft 229 kts 345°
2026-05-04 17:54 48.24776 16.65147 3008 ft 223 kts 346°
2026-05-04 17:54 48.26296 16.64630 3042 ft 225 kts 345°
2026-05-04 17:54 48.27819 16.64110 3020 ft 224 kts 346°
2026-05-04 17:54 48.29250 16.63271 3003 ft 220 kts 319°
2026-05-04 17:55 48.30107 16.61520 3002 ft 202 kts 280°
2026-05-04 17:55 48.30193 16.59508 3004 ft 190 kts 258°
2026-05-04 17:55 48.30058 16.57549 3009 ft 188 kts 255°
2026-05-04 17:55 48.29889 16.55603 3006 ft 187 kts 256°
2026-05-04 17:56 48.29652 16.53697 3006 ft 183 kts 241°
2026-05-04 17:56 48.28871 16.52285 3014 ft 175 kts 211°
2026-05-04 17:56 48.27792 16.51572 3003 ft 165 kts 189°
2026-05-04 17:56 48.26724 16.51568 2992 ft 145 kts 169°
2026-05-04 17:57 48.25801 16.51951 3010 ft 135 kts 167°
2026-05-04 17:57 48.24911 16.52328 3005 ft 131 kts 167°
2026-05-04 17:57 48.24024 16.52704 2937 ft 130 kts 167°
2026-05-04 17:57 48.23166 16.53069 2828 ft 129 kts 167°
2026-05-04 17:58 48.22302 16.53436 2681 ft 129 kts 167°
2026-05-04 17:58 48.21440 16.53802 2519 ft 128 kts 167°
2026-05-04 17:58 48.20585 16.54165 2362 ft 128 kts 167°
2026-05-04 17:58 48.19732 16.54527 2200 ft 127 kts 167°
2026-05-04 17:59 48.18881 16.54889 2040 ft 127 kts 167°
2026-05-04 17:59 48.18031 16.55249 1867 ft 127 kts 166°
2026-05-04 17:59 48.16336 16.55969 1533 ft 126 kts 164°
2026-05-04 18:00 48.15478 16.56333 1362 ft 130 kts 162°
2026-05-04 18:00 48.14617 16.56697 1180 ft 128 kts 162°
2026-05-04 18:00 48.13761 16.57059 1014 ft 127 kts 161°
2026-05-04 18:00 48.13190 16.57300 896 ft 126 kts 161°
2026-05-04 18:01 48.12345 16.57662 728 ft 126 kts 162°
2026-05-04 18:01 48.11524 16.58013 613 ft 111 kts 162°
2026-05-04 18:01 48.10937 16.58260 620 ft 63 kts 165°
2026-05-04 18:02 48.10392 16.58473 621 ft 24 kts 177°
2026-05-04 18:02 48.10237 16.58441 610 ft 22 kts 193°
2026-05-04 18:02 48.10136 16.58390 610 ft 11 kts 229°
2026-05-04 18:02 48.10158 16.58309 614 ft 9 kts 333°
2026-05-04 18:03 48.10216 16.58283 611 ft 8 kts 345°
2026-05-04 18:03 48.10269 16.58262 618 ft 7 kts 345°
2026-05-04 18:03 48.10316 16.58242 622 ft 8 kts 343°
2026-05-04 18:03 48.10386 16.58211 618 ft 11 kts 344°
2026-05-04 18:04 48.10414 16.58199 613 ft 0 kts 343°
2026-05-04 18:04 48.10511 16.58158 620 ft 9 kts 344°
2026-05-04 18:05 48.10571 16.58133 615 ft 9 kts 345°
2026-05-04 18:05 48.10626 16.58110 617 ft 8 kts 345°
2026-05-04 18:05 48.10681 16.58087 613 ft 9 kts 344°
2026-05-04 18:05 48.10750 16.58058 615 ft 11 kts 344°
2026-05-04 18:06 48.10900 16.57993 623 ft 12 kts 340°
2026-05-04 18:06 48.10966 16.57920 625 ft 11 kts 315°
2026-05-04 18:06 48.11031 16.57812 615 ft 15 kts 305°
2026-05-04 18:07 48.11078 16.57675 617 ft 14 kts 295°
2026-05-04 18:07 48.11121 16.57544 612 ft 14 kts 296°
2026-05-04 18:07 48.11164 16.57410 616 ft 16 kts 296°
2026-05-04 18:07 48.11210 16.57269 611 ft 15 kts 296°
2026-05-04 18:08 48.11253 16.57137 618 ft 14 kts 296°
2026-05-04 18:08 48.11304 16.56981 614 ft 17 kts 296°
2026-05-04 18:08 48.11352 16.56838 615 ft 10 kts 306°
2026-05-04 18:08 48.11421 16.56838 612 ft 14 kts 26°
2026-05-04 18:09 48.11554 16.56989 610 ft 11 kts 98°
2026-05-04 18:09 48.11470 16.57090 620 ft 8 kts 208°
2026-05-04 18:10 48.11447 16.57073 618 ft 2 kts 205°
2026-05-04 18:10 48.11441 16.57069 613 ft 0 kts 204°